TIMESTAMP,CO2_1_1_1,H2O_1_1_1,TAU_1_1_1,TAU_SSITC_TEST_1_1_1,H_1_1_1,H_SSITC_TEST_1_1_1,LE_1_1_1,LE_SSITC_TEST_1_1_1,FC_1_1_1,FC_SSITC_TEST_1_1_1,WD_0_0_1,WS_0_0_1,WS_MAX_0_0_1,U_SIGMA_0_0_1,V_SIGMA_0_0_1,W_SIGMA_0_0_1,USTAR_0_0_1,MO_LENGTH_0_0_1,ZL_0_0_1,FETCH_MAX_0_0_1,FETCH_70_0_0_1,FETCH_80_0_0_1,FETCH_90_0_0_1,PA_0_0_1,RH_0_0_1,TA_0_0_1,VPD_0_0_1,T_SONIC_0_0_1,T_SONIC_SIGMA_0_0_1
[yyyymmddHHMMSS],[mmolCO2 mol-1],[mmolH2O mol-1],[kg m-1 s-2],[#],[W m-2],[#],[W m-2],[#],[umolCO2 m-2 s-1],[#],[Decimal degrees],[m s-1],[m s-1],[m s-1],[m s-1],[m s-1],[m s-1],[m],[#],[m],[m],[m],[m],[kPa],[%],[deg C],[hPa],[deg C],[deg C]
20240419003000,419.18584994316467,5.1549632448818485,0.66358002451121900,0,-43.812002807605722,0,32.886617137982824,0,2.8889306706873006,0,230.64913772120843,3.6038904140449226,9.2617873921282197,1.4665369851497168,1.1631205168998910,0.92201151352978039,0.75583096179209031,822.32405229319170,2.3105246583771010E-002,106.80843878540419,195.27989090409437,233.70015423213829,292.56486122949764,94.091008252631667,43.834333333333333,8.5029999999999859,6.2165107217446032,8.6850984786469780,0.15142907756949134
20240419010000,420.23040698879265,5.5122959711048729,0.27099515412337122,0,-74.851093789605272,1,57.088867550938673,1,3.9280073513508453,1,272.24120802198831,1.7358023469626491,7.6979342319287394,1.3068732017143916,2.1832035897459332,0.62182132984643590,0.48215275442914834,124.97516876087094,0.15203020078616447,102.15747012886972,186.77643684957701,223.52369154135059,279.82513752362411,94.117824540816514,50.052666666666667,7.5426666666666620,5.1785237637937316,7.7250764719744893,0.61288078811957181
20240419013000,421.06819652102001,5.7764808766721236,0.10140289739526091,0,17.811708512044834,1,29.791836565958061,1,1.4353848687062634,0,304.17143682631786,1.7136909541192693,4.4141328634317860,0.77189906773525940,0.66883355896334806,0.37341249335859811,0.29426673157013777,-119.44896505899887,-0.15906374735532802,103.48961157644165,189.21201628046200,226.43845806445350,283.47407933177084,94.174443786722833,56.730666666666664,6.4086666666666474,4.1502589977428936,6.6744570695979064,0.18594980533997019
20240419020000,421.29602884971519,5.5159561556484613,6.6257853610744377E-002,0,7.6129155411582374,2,27.671704878064240,1,1.7123410767865010,0,289.38429344566043,1.5235857105004631,4.4233083473855759,0.83377781109471771,0.64518999756404771,0.37438443670377314,0.23747916304259134,-146.92969748830777,-0.12931354467337663,86.996359288208780,159.05709084455199,190.35071399308973,238.29650608191875,94.218030172960084,57.101999999999997,5.6536666666666520,3.9053236377329417,5.9029698393080707,0.17832788987589909
20240419023000,420.88410044579723,5.1783709141063419,0.37755382031995927,0,-27.883459981599461,0,41.329902383610502,1,3.3300664585146382,0,246.67121890789053,2.3320112816130627,9.6963872587485582,1.5394622443975274,1.0293592486430587,0.67077778482702111,0.56661879867677123,544.93847817466394,3.4866321173800674E-002,109.40187019717096,200.02151065732940,239.37466205017776,299.66867165608960,94.236908158637149,54.262000000000000,5.4816666666666833,4.1144523386182028,5.7202963765462300,0.12865741074788770
20240419030000,420.07015600749099,4.6433915201346734,0.65717915063946597,0,-28.018830903704060,1,22.404843294576221,0,3.2414493753182243,0,233.30993972158291,3.8018008889565325,9.6001666389216300,1.5020812180389707,1.2130625994311557,0.87874446154752228,0.74727408598077694,1243.8036328860569,1.5275723191058218E-002,109.98887419117558,201.09474117369149,240.65904487136461,301.27656653780554,94.230691668836812,49.237000000000002,5.3100000000000023,4.5123196655139859,5.4577347225612698,0.20457241437331541
20240419033000,420.40508968865578,4.6747580781453477,0.57028484076214658,0,-26.607855224410663,1,14.314964073276823,0,2.6748972022522550,0,236.63618147388576,3.7498774728376962,10.869336362941763,1.6043740691788724,1.3704033401188072,0.96883182359380193,0.69530825973660038,1054.9863996678232,1.8009710841753419E-002,96.028046472081328,175.56989552555774,210.11232376709083,263.03569652104528,94.220108479817711,51.983666666666664,4.6266666666666652,4.0695023514694357,4.8105708355373622,0.16735700906030676
20240419040000,420.86271962317534,4.7380518137021275,0.77304305106361737,0,-27.446991250402665,0,15.076655228989866,0,2.8710231921842970,0,229.69511277707937,3.7639883904831781,9.9970822198309985,1.5861718888759733,1.2806946437345612,0.93241913065847004,0.80852761804575124,1607.9656363227596,1.1816172914895687E-002,111.71766420771038,204.25552069321330,244.44169068187873,306.01199022748841,94.208860105590517,55.440333333333335,3.8990000000000009,3.5885924128624929,4.1229073823501494,0.18772286740343544
20240419043000,421.16420014689811,4.7713582756128199,0.58847818822537801,0,-27.755859525940092,0,15.424336498354817,0,2.5669232625639724,0,232.73363375347100,3.6616482421594854,9.9095573874295315,1.5640243507616374,1.1664579471787937,0.81705013821688333,0.70497547663933791,1054.0269184646240,1.8026105090064349E-002,111.27436931216985,203.44503624250973,243.47174779500361,304.79773683073074,94.208126470920135,57.296333333333337,3.5310000000000059,3.3510832029276933,3.7850064926147411,0.10509429349099336
20240419050000,421.33120495952966,4.6412481403821717,0.67703771075593500,0,-34.991986592420915,0,14.957781848086045,0,3.2242094582371186,0,235.46173784677865,4.4778838963757810,11.618304378124860,1.7002397961948710,1.3487776740498700,0.98024074733929789,0.75546096211790281,1028.7852808579405,1.8468382424907195E-002,101.66192301133212,185.87041867207131,222.43941918314761,278.46775719559264,94.203699491319455,57.789000000000001,3.0183333333333167,3.1944764253485789,3.2604914313421887,0.21051187837708782
20240419053000,421.61089951080214,4.5787643422724953,0.31161967633928422,0,-26.755948406662746,0,8.2196221746853624,0,1.4818200262167560,0,240.35356469547420,2.7822025769762373,8.5312742807575201,1.2232581959690993,0.87194301933742624,0.61147200154325665,0.51192791746569588,418.63067801380117,4.5386066998591101E-002,108.62272411904463,198.59698313061813,237.66986643011134,297.53446983817400,94.196524172960068,59.749666666666670,2.3569999999999709,2.9062545061376959,2.6411369637382904,0.19397548483850119
20240419060000,421.29574313185418,4.3954136358934504,0.62565630664337002,0,-29.229229689033868,1,19.198349704990637,1,2.0542776277310186,0,235.84812352276040,3.0999508393450412,8.9246869733126353,1.4862580165505614,1.0754191120260628,0.77468467984933154,0.72499552271846557,1088.3341716867028,1.7457873228912547E-002,118.74714737092337,217.10765785423311,259.82241638198690,325.26683366071666,94.185425101987121,58.606333333333332,2.0533333333333417,2.9247535710857329,2.3168535090717342,0.13739888269922809
20240419063000,420.89915325962329,4.1828050858659998,0.72051618649946558,0,-14.720428920698350,0,19.110019800148024,0,2.9979001900485551,0,243.57710610677321,3.8631639299703662,11.145198374681296,1.6932437129397278,1.4022998615471953,0.93183552021463922,0.77814329174945585,2671.4281668519839,7.1123005423685548E-003,108.40046699849512,198.19062622898070,237.18356100385219,296.92567315159869,94.162981153428817,55.576666666666668,2.0989999999999895,3.1490746351976826,2.3128050689697375,6.7826488550072006E-002
20240419070000,420.60663333863044,3.9507202331782341,1.0440015549953696,0,-4.8192445769141488,2,36.888949919634996,0,4.3609962473996973,0,242.09346423746908,4.4563747114926908,13.036356536798515,1.8089905748858099,1.4481611659913598,1.0821615557992454,0.93643526357743878,14218.078823421500,1.3363268157369631E-003,111.53301090838544,203.91791556989804,244.03766357482201,305.50619623305397,94.138296646267364,53.189000000000000,1.9110000000000014,3.2740490785278906,2.0947233242459333,9.0035265892040653E-002
20240419073000,420.55380765365607,3.7392847952829107,0.71997040537357782,0,-17.521799314530842,1,12.012926163279399,0,2.6977500559013228,0,235.63005896749740,4.2641345252936240,11.683274714212935,1.7093568835718345,1.3688455454767336,0.95265074048039788,0.77732225434478730,2236.4284539335704,8.4956887248423315E-003,106.41156085956189,194.55427147793233,232.83177310480968,291.47775110393542,94.126155827690980,51.228999999999999,1.6653333333333649,3.3516690348149143,1.8337120276557926,8.9266130729536181E-002
20240419080000,420.70767365936405,3.7029676082699425,0.74660865227509621,0,-4.5432343222199032,1,16.004737895531335,0,2.7591450839933591,0,250.63929830641396,4.1346411274149801,11.409231575788075,1.6770836477485396,1.4491220838899364,0.97102892766681081,0.79126146161890842,9096.8603481557111,2.0886327010452613E-003,106.29802035864830,194.34668323037684,232.58334299126398,291.16674608156586,94.117118190972221,51.600000000000001,1.4273333333333085,3.2698714038312593,1.5895833070543404,0.13566705740929869
20240419083000,420.77103292543393,3.6604031768386545,0.74747407528879151,0,-0.69084006653010899,2,19.963078547242631,0,2.5781457546394937,0,251.34489418073304,4.1951274175622713,11.779772511883767,1.8097432092278303,1.3873008262536426,0.97349406522406601,0.79115734692341932,59799.273342270950,3.1772961338928624E-004,106.07145973090280,193.93245814505192,232.08762135869301,290.54616142205589,94.115169172093047,52.461666666666666,1.0360000000000014,3.1225320014768019,1.1890987254357697,0.11932708653309841
20240419090000,420.50400613759632,3.2802603828331400,1.3065416471640636,0,-19.005309709864267,0,17.167413193120137,0,3.4682343052875964,0,249.51488021483536,4.2473160665592760,11.350590742936951,2.0953358229271863,1.4779160214385252,1.0912636304781533,1.0454099265253323,5014.4923193590739,3.7890176691762248E-003,120.98748538270712,221.20371025893513,264.72434496403383,331.40346656143316,94.110659495659732,47.957333333333331,0.75966666666664651,3.3509514100334763,0.88058694627557088,7.1114980897933888E-002
20240419093000,420.67516636143648,3.3665420117307581,1.1418208011319686,0,-5.6077159345562428,1,19.126922929558202,0,4.0068426302343081,0,245.83763866730058,4.6007799741284270,13.650347947399895,2.2658838453225196,1.6591607585802930,1.1557194079409872,0.97707578327137223,13873.800695346623,1.3694877429205642E-003,109.47515638335561,200.15550117910519,239.53501448308663,299.86941387397957,94.095415687065980,49.833333333333336,0.58566666666666833,3.1898061439694385,0.71497756618919084,8.0188380225673317E-002
20240419100000,420.94720861685767,3.4727574787565509,1.0826958477202071,0,-41.527950914270136,0,19.773782264526691,0,3.2290615742240001,0,241.12161521290824,3.8392826083914784,10.970488562589829,1.7583709015712055,1.5480433128875197,1.0727467985406993,0.95096109555990160,1726.9932046475171,1.1001780405892182E-002,113.70703055650336,207.89271685466167,248.79448553427082,311.46117286125593,94.077482835246855,52.676666666666669,0.24566666666669335,2.9358486678410607,0.41313342076256276,0.16595190290339215
20240419103000,421.06264054881154,3.5971064671836985,0.73493906315816560,0,-42.658247074051381,0,7.5261720651267332,1,2.4015491306559249,0,239.35577094811256,3.8286383207522303,10.140606738025435,1.6436169751787388,1.2737734340856237,0.96529190736511250,0.78299944892463269,938.39429238288176,2.0247352476700335E-002,105.91004016361030,193.63733169391077,231.73443037302442,290.10400821916585,94.063792185112860,56.150666666666666,-0.15133333333335486,2.6430192903827137,6.0500614590182522E-002,0.12069077607756377
20240419110000,421.25463385069185,3.7037000762802328,0.83335436944233887,0,-39.333962310141210,0,2.7965176804941123,0,2.5404666801001756,0,233.88933231134516,4.4931054281308684,12.368754200187542,2.0165047597713226,1.5349488151987043,1.0080296975936147,0.83330120201301705,1226.5773948526421,1.5490257752779320E-002,107.52707814386501,196.59379284962861,235.27255928570347,294.53332576818980,94.047838501302095,59.382666666666665,-0.52100000000001501,2.3831579052534830,-0.29915260399707222,0.14061313922222579
20240419113000,421.28813177259110,3.8069214030987424,1.1078749608523981,0,-23.152547187200195,0,7.9268805977571111,0,2.7136524669414710,0,236.27303308058819,4.3454705608913686,11.153167910630371,1.8984307275578862,1.5503365608687267,1.0872069175211623,0.96032072476086916,3189.6678485538505,5.9567330838583479E-003,113.38044975781743,207.29562299706029,248.07991668662106,310.56661745782253,94.057845060329853,62.182666666666663,-0.77400000000000091,2.1782462414253838,-0.51882955508762052,6.7125117209282825E-002
20240419120000,421.25721793973116,3.8211993039346419,0.89465325232673254,0,-2.4653811842383866,2,10.500191929193477,0,1.3200389910958135,1,234.75653901486055,4.3527218365915168,12.597068322193653,1.7435830138380350,1.4136101741760525,1.0234173854172615,0.86296010001322287,21738.029202745351,8.7404427617570972E-004,109.24592352595245,199.73639040570214,239.03344592970831,299.24150956343965,94.068660784505212,62.330333333333336,-0.75366666666667470,2.1729686376474082,-0.50359018283415935,8.1973723351622160E-002
20240419123000,421.19931856307022,3.8085148478012862,0.84795695069411292,0,15.604585229345611,0,10.699333149755219,0,1.7055908431830760,0,232.05756631827694,3.9249083139241447,11.316495551847087,1.7169736912260070,1.3104233765229041,1.0236781304423568,0.84010285479893843,-3169.0706977715213,-5.9954484490865817E-003,106.90305787353599,195.45288477440965,233.90718371165471,292.82403757084040,94.085468901041665,62.009000000000000,-0.72599999999999909,2.1959410816344551,-0.47499791378442069,9.5105012525887364E-002
20240419130000,421.26546119117711,3.7657318101350543,1.1676312680083785,0,52.312952886052287,0,18.274061401189282,0,2.4368012329811131,0,238.67567385708196,4.8683788017812919,12.060518676815786,1.8879653759847173,1.7203750593851397,1.1992968961864268,0.98612429035878180,-1528.7023353255336,-1.2428842136853278E-002,107.06779464172502,195.75407612675664,234.26763283506929,293.27527710090652,94.071102184895835,60.723666666666666,-0.59600000000000364,2.2918967474770535,-0.38702994706892468,0.14526137767668887
20240419133000,420.91464979792778,3.6832137302602681,1.3635423869296182,0,66.645056605942870,0,31.897576454792809,0,2.5255835007445877,0,239.79014804108957,4.0050458440878538,13.926711107956200,2.2514510287090199,1.6978422623364460,1.1780179196183946,1.0658939413665069,-1515.2981921111641,-1.2538786160319089E-002,115.58582502750038,211.32775235840739,252.90534571194524,316.60748199128983,94.068631305555556,58.839333333333336,-0.46800000000001774,2.4243922228340211,-0.26552689615880354,0.16919017851821166
20240419140000,420.29761109990045,3.3969926219898983,1.4254045997721545,0,105.25886309380569,0,37.695424375319554,0,3.3331377817532255,0,243.08352568107077,5.7837810466518960,14.431677398350727,2.3295060184895320,2.1927409461560239,1.3450782265544932,1.0903878570906924,-1026.8186547230828,-1.8503754204898047E-002,105.85750917894802,193.54128830004984,231.61949096039800,289.96011771376442,94.039436190754031,53.322666666666670,-0.23133333333333894,2.7971469062579808,-0.11590304079271618,0.22462112141489166
20240419143000,420.12819882179900,3.3262572739969163,1.5117027602837261,0,79.370943731599453,0,26.772734183840338,0,3.8174875828303785,0,240.72890233162190,5.6337558261400451,16.221738877776851,2.3250238389816080,1.8926420872335774,1.3628521311025639,1.1229247896681469,-1487.3286808072885,-1.2774580524922863E-002,107.24484978447541,196.07778939654588,234.65503494148427,293.76025856733179,94.043018468750006,52.120666666666665,-0.20666666666664923,2.8743325253590544,-9.4936547173347208E-002,0.16374649355934867
20240419150000,419.22732574430762,2.9796908038218759,1.8639548943956381,0,127.45691760896611,0,73.434648281565671,1,5.2441277735832843,0,239.22003619667160,6.1629222860060429,16.245554363807305,2.5252753843204712,2.0947965854338326,1.4307070285931289,1.2476578931733315,-1270.3921099669712,-1.4956012282297612E-002,112.22529250222925,205.18362711533453,245.55239702747014,307.40246277095912,94.048993133785700,45.419333333333334,0.17399999999997817,3.3685260556191832,0.21412739639794154,0.34381055613195699
20240419153000,419.22063589728242,2.8592530296592082,1.7196644417631370,0,136.76466995600910,0,46.460527246907240,1,3.5406252561702583,0,241.56114053129238,5.8674744649955874,16.045505960383760,2.5512558934824856,2.2901832905259893,1.4400872732162675,1.1995363883550039,-1052.0473015456121,-1.8060024460959320E-002,108.18189672231955,197.79101005471756,236.70532250665423,296.32697530295138,94.036707815972221,42.034666666666666,0.67199999999996862,3.7087470622242327,0.69489496612550283,0.24275027915688341
20240419160000,419.74816738875865,3.1052544031780296,2.0243298417154296,0,155.61028924136269,0,34.715840616510199,0,3.4155429831274589,0,230.28410088042338,5.4405821533670879,15.066938387956176,2.5576000634136080,2.1491777358802748,1.5263109586504418,1.3008145975411096,-1179.4492849331962,-1.6109213208837680E-002,110.18254598565514,201.44883498245090,241.08280472362895,301.80706358766713,94.063087806857638,46.402999999999999,0.44999999999998863,3.3746389841902089,0.48926539866124585,0.26531126583525527
20240419163000,420.08009141320792,3.4485999958411981,1.4932879393839349,0,96.931253180097116,0,73.487226027554982,1,1.4707878374953194,0,224.07695054660621,4.8260757050006058,14.590226366600296,2.4162873637323830,1.9456211391477818,1.2757253542138884,1.1164642309064452,-1197.3287810038817,-1.5868657215497441E-002,112.54468793298443,205.76758382870295,246.25124406874644,308.27733633843042,94.078267568142365,52.948333333333331,7.8666666666663332E-002,2.8838411286632430,0.18747304534917930,0.24766629005947610
20240419170000,420.06290125796346,3.5925151403718303,1.6948838321957078,0,184.93845173780315,0,20.372677103999475,1,1.8738958812286757,1,225.88385636142996,5.5924959795353528,13.837386394333242,2.4975238487865785,1.9227012065232891,1.4071024100735248,1.1899403678702072,-759.77463351567769,-2.5007415570169785E-002,109.50009415625551,200.20109538146093,239.58957909838469,299.93772229745997,94.072953925480633,54.364333333333335,0.27766666666667561,2.8377243071265319,0.35467857856406226,0.34597332542762671
20240419173000,420.32403804710742,3.6708518137679227,1.7555592059205840,0,157.16532574459816,0,49.269906981843498,1,1.9203099612348757,1,230.32437736269821,6.0818849462495148,16.646758085630839,2.7047004640950520,2.0133580284002255,1.5112597433986572,1.2107864525168510,-941.85205083988274,-2.0173019725398516E-002,104.86671195244384,191.72979497143228,229.45159610789457,287.24617061019171,94.071655320746530,56.083333333333336,0.14566666666667061,2.7048156430959245,0.20452588060175003,0.34564133097751204
20240419180000,420.32218698200626,3.7303655216510929,1.8839133862969184,0,177.92051593617526,0,36.616280760585013,0,3.7472056298222145,0,236.99790462058320,5.5107950515486843,13.647793073244884,2.5376838505442567,1.9898638790652059,1.4034745166313733,1.2548197660773248,-926.02637479130703,-2.0517774133897552E-002,114.48704752016027,209.31883663787758,250.50118667870530,313.59776016956260,94.060505454861129,56.157333333333334,0.34766666666666879,2.7400952552196443,0.43938828362365712,0.41007058119677814
20240419183000,420.15119781496384,3.4820871230931796,1.6970376452373110,0,152.35545199491619,0,11.817287342595199,1,2.9453935841673031,0,232.78165340890411,5.7936889020677844,14.933143574334455,2.5319980222392124,2.0824489130945074,1.4602296254742873,1.1916750179507360,-926.17728285268458,-2.0514431040112319E-002,106.42514328985476,194.57910449240165,232.86149188068907,291.51495548477817,94.056977374565975,51.127000000000002,0.69233333333335167,3.1315966419930064,0.74771754286024361,0.25972771553514296
20240419190000,420.02422493156098,3.2982196396035786,1.6694670949151846,0,130.35707258667458,0,42.629083555757830,1,2.1977627830473185,1,244.03102434709689,5.4674771581942627,15.046728328794419,2.5244973924763716,2.0516608041209521,1.3389154442715272,1.1816508331983167,-1055.5669271562890,-1.7999806086371278E-002,113.30360062249568,207.15511826791754,247.91176841124573,310.35611577025287,94.083429141493056,48.598666666666666,0.64733333333333576,3.2829118465363218,0.71325284322102789,0.23933063570309387
20240419193000,419.73022019147538,3.1906941893219605,1.5839024928152450,0,108.94297579836871,0,20.996784080235237,0,2.2796595475004455,1,236.88540156995148,5.4019276368676987,15.790507965893301,2.4784392247013241,1.9579666278144978,1.3562487358859150,1.1510403683129387,-1167.5487927175084,-1.6273409829645639E-002,109.81353364949942,200.77416274150991,240.27539436491730,300.79628162935876,94.100587420138893,46.704666666666668,0.74133333333332985,3.4270694155717609,0.79972841050891930,0.20401294245311635
20240419200000,419.93940631285500,3.2159731520356534,1.7447471719204366,0,74.920561345495756,0,20.612858127661379,0,4.1696434507682500,0,240.35823189637182,6.0478128429310116,15.229692483497850,2.2467328657595220,1.9261291976596391,1.4652184744359038,1.2076588200611296,-1960.7764378205218,-9.6900389220911029E-003,107.27249879029736,196.12834059738654,234.71553181793371,293.83599347782598,94.098516765507782,47.744000000000000,0.54566666666664787,3.3130579565543412,0.60415287341106705,0.16892601611381317
20240419203000,419.95986048034206,3.3942206485695254,1.3283324269570518,0,119.45244947945008,0,41.441809021711073,1,1.6749373208949128,0,238.99327060587564,5.2255208138843852,14.641180287187758,2.4213340070789018,1.7335166190977873,1.2098904227545355,1.0540133921814505,-817.64042432654901,-2.3237598624908234E-002,112.13339515811192,205.01560946113341,245.35132280769903,307.15074170814069,94.101435511718762,49.903666666666666,0.68033333333335122,3.2072017669163349,0.74325451914472751,0.22184769666339713
20240419210000,420.22884965184568,3.4473619272932852,1.7755500140555209,0,132.60710403205556,0,-15.312337701615377,2,3.6545640160349588,0,239.59083497432781,5.8622387680266312,15.351537841129060,2.7188397059935285,2.0423984889360978,1.4852641653477634,1.2185855874880742,-1138.1190694677759,-1.6694211097688628E-002,106.88007926629126,195.41087255171541,233.85690581116108,292.76109560561514,94.090493422743052,50.830666666666666,0.63900000000001000,3.1384673898114990,0.70002334001338795,0.26138761020191065
20240419213000,420.13376212512935,3.5600036952038212,2.0353183062343678,0,174.49568565963469,0,40.774661130964361,0,3.6506691200359622,0,237.93745015932188,5.5420409877736585,16.359711136377484,2.7670067710079622,2.1419941481122788,1.3626352760256459,1.3047909297276812,-1061.7989630163183,-1.7894159498918250E-002,120.94389217108804,221.12400796475370,264.62896167414863,331.28405800108982,94.093467507812505,52.336666666666666,0.68033333333335122,3.0514394310386441,0.71233835262728462,0.32514452237387631
20240419220000,420.34627514060503,3.5315164497369143,1.6205327900389606,0,119.79966811055294,0,5.2008480637666894,2,2.2575757857612677,1,245.01762833432468,4.9856430941496939,18.961077040688995,2.3763645193054423,2.0678098983722535,1.3801389818614223,1.1646211577752930,-1099.7276129972583,-1.7277005483399978E-002,109.31112960526779,199.85560791510295,239.17611883988431,299.42011911679663,94.088474358139550,51.342333333333329,0.83400000000000318,3.1498495912015416,0.92496970337208495,0.21119181731033529
20240419223000,420.66024113459611,3.8100520439219112,1.2486922279222534,0,40.411590517685518,0,13.124938632235803,1,2.0415330940220051,0,256.12139045822073,4.3803003733913037,12.927020368894203,2.1291690278241049,1.6993645612387029,1.1381488435199765,1.0209041682501763,-2196.8498323437216,-8.6487477297115672E-003,114.78460188232083,209.86286091200347,251.15224478909562,314.41280766640540,94.133791332899307,58.092333333333336,0.18266666666664833,2.5880198211357159,0.33598195393881269,0.22455859689087695